Regional Weather Roundup
Issued by NWS

Home | Current Version | Previous Version | Graphics & Text | Print | Product List | Glossary On
Versions: 1 2 3 4 5 6 7 8 9 10 11 12 13 14 15 16 17 18 19 20 21 22 23 24 25 26 27 28 29 30 31 32 33 34 35 36 37 38 39 40 41 42 43 44 45 46 47 48 49
000
ASUS45 KSLC 211210
RWRUT

UTAH REGIONAL WEATHER ROUNDUP
NATIONAL WEATHER SERVICE SALT LAKE CITY UT
600 AM MDT SUN SEP 21 2014

UTZ001>011-023>025-211300-

NORTHERN UTAH

CITY           SKY/WX    TMP DP  RH WIND       PRES   REMARKS
HILL AFB       CLOUDY    66  38  35 S14       30.16R
LOGAN          CLEAR     53  49  86 S6        30.12S
OGDEN          CLOUDY    67  38  34 S16       30.12R
PROVO AIRPORT  CLOUDY    64  52  63 E3        30.18F
SALT LAKE CITY CLOUDY    69  51  52 S9        30.12R
VERNAL         MOCLDY    56  39  53 NE6       30.20R
WENDOVER       CLOUDY    68  52  56 S15       30.11R
HEBER CITY     CLOUDY    55  43  62 E5        30.23R
WEST JORDAN    CLOUDY    66  50  55 S10       30.16R

$$

UTZ012>022-026-027-211300-

SOUTHERN UTAH

CITY           SKY/WX    TMP DP  RH WIND       PRES   REMARKS
BRYCE CANYON   CLOUDY    53  51  93 NE3       30.31F
CEDAR CITY     CLOUDY    57  54  89 CALM      30.15R
MILFORD        MOCLDY    60  57  89 CALM      30.12R
MOAB/CYNLANDS  MOCLDY    70  54  56 CALM      30.11R
PRICE          CLOUDY    62  49  62 N13       30.21F
ST GEORGE      CLOUDY    73  55  53 CALM      30.05R THUNDER
KANAB            N/A     61  61 100 NW9       30.18R

$$

REGIONAL REPORTS     COLORADO/ARIZONA

CITY           SKY/WX    TMP DP  RH WIND       PRES   REMARKS
CRAIG, CO      PTCLDY    38  33  82 SW3       30.29R
GRAND JUNCTION LGT RAIN  71  47  42 SE25G33   30.18R
RIFLE          PTCLDY    57  43  59 CALM      30.24R
MONTROSE       RAIN      60  55  83 E8        30.35R
CORTEZ         CLOUDY    60  56  86 NE8       30.28R
PAGE, AZ       MOCLDY    67  59  75 S3        30.10R
GRAND CANYON   CLOUDY    54  52  93 CALM      30.24R
KINGMAN        CLOUDY    75  51  43 SE7       30.01R
FLAGSTAFF      CLOUDY    55  52  89 CALM      30.28R

$$

REGIONAL REPORTS    NEVADA/IDAHO/WYOMING

CITY           SKY/WX    TMP DP  RH WIND       PRES   REMARKS
LAS VEGAS, NV  MOCLDY    75  60  59 SE5       29.92R
ELY            LGT RAIN  53  52  96 NW3       30.26F
ELKO           CLOUDY    58  50  75 S7        30.18S
POCATELLO, ID  CLEAR     49  46  90 NE5       30.12S
BURLEY         MOCLDY    50  44  80 CALM      30.08S
EVANSTON, WY   MOCLDY    55  38  52 NE10      30.29F
ROCK SPRINGS   PTCLDY    49  36  61 E16       30.34S

$$



USA.gov is the U.S. government's official web portal to all federal, state and local government web resources and services.